{"data":{"norad_id":63399,"intl_designator":"2025-065A","name":"STARLINK-33531","alt_names":[],"object_type":"PAYLOAD","status":"ACTIVE","operator":null,"country":"US","launch_date":"2025-03-31","launch_site_code":"AFETR","launch_vehicle":null,"mission":null,"orbit_class":"UNKNOWN","rcs_meters":null,"size_class":null,"mass_kg":null,"dimensions":null,"purposes":["comms"],"wikipedia_slug":null,"has_3d_model":false,"image_url":null,"decayed_at":null,"tle_current":{"epoch":"2026-05-24T22:45:38.329056Z","epoch_age_seconds":75671,"freshness":"FRESH","line1":"1 63399U 25065A   26144.94836029  .00017115  00000+0  62966-3 0  9992","line2":"2 63399  43.0042  36.3317 0001490 247.0897 112.9798 15.27599918 64507","mean_motion":15.27599918,"eccentricity":0.000149,"inclination_deg":43.0042,"raan_deg":36.3317,"arg_perigee_deg":247.0897,"mean_anomaly_deg":112.9798,"bstar":0.00062966,"rev_number":6450,"period_min":94.265519592676,"perigee_km":481.96714718844,"apogee_km":484.01176287203,"semimajor_km":6861.1264550302,"source":"CELESTRAK","updated_at":"2026-05-25T13:38:19.967493Z"}}}